Location: Bílinka
(49.3579°N, 14.3767°E)
Time: 21:40:06
(UTC+00:00)

SL-16 R/B - Pass Details

Date: 28 January 2023
Orbit: 842 x 846 km, 71.0° (Epoch: 28 March)

Event Time Altitude Azimuth Distance (km) Brightness Sun altitude
Rises 18:14:07 0° 196° (SSW) 3,386 5.6 -23.1°
Reaches altitude 10° 18:16:33 10° 194° (SSW) 2,455 4.8 -23.5°
Maximum altitude 18:22:07 65° 114° (ESE) 926 2.1 -24.4°
Enters shadow 18:22:31 63° 90° (E) 940 2.1 -24.5°
